Location: Unspecified
(33.1972°N, 0.0000°E)
Time: 19:53:58
(UTC+00:00)

LightSail 2 - Visible Passes

Search period start: 13 November 2019 00:00
Search period end: 23 November 2019 00:00
Orbit: 701 x 726 km, 24.0° (Epoch: 13 November)

Date Brightness Start Highest point End Pass type
(mag) Time Alt. Az. Time Alt. Az. Time Alt. Az.
13 Nov 7.8 03:23:17 14° SE 03:23:17 14° SE 03:24:11 10° ESE visible
13 Nov 6.5 05:02:16 18° SW 05:05:09 30° S 05:09:40 10° ESE visible
14 Nov 6.6 04:08:03 28° SSE 04:08:03 28° SSE 04:11:51 10° ESE visible
14 Nov 6.8 05:48:10 10° WSW 05:52:27 26° S 05:56:45 10° SE visible
15 Nov 8.1 03:13:48 11° ESE 03:13:48 11° ESE 03:13:59 10° ESE visible
15 Nov 6.5 04:52:47 22° SW 04:54:41 28° S 04:59:07 10° SE visible
16 Nov 6.9 03:58:31 25° SSE 03:58:31 25° SSE 04:01:23 10° ESE visible
16 Nov 7.0 05:38:04 10° WSW 05:41:55 21° SSW 05:45:49 10° SE visible
17 Nov 6.6 04:43:12 23° SSW 04:44:10 24° S 04:48:19 10° SE visible
18 Nov 7.4 03:48:55 18° SE 03:48:55 18° SE 03:50:41 10° SE visible
18 Nov 7.2 05:28:18 10° SW 05:31:20 16° SSW 05:34:22 10° SSE visible
19 Nov 6.9 04:33:36 19° SSW 04:33:36 19° SSW 04:37:10 10° SSE visible
20 Nov 7.8 03:39:18 12° SE 03:39:18 12° SE 03:39:43 10° SE visible
20 Nov 7.5 05:20:10 10° SSW 05:20:39 10° SSW 05:21:08 10° SSW visible
21 Nov 7.5 04:23:59 13° S 04:23:59 13° S 04:25:21 10° S visible
